Weather History for Lawrence, MA

Change the Weather History Date:

Monday, March 3, 2014

  Actual Average Record
Temperature  
Mean Temperature 20 °F -  
Max Temperature 25 °F 40 °F 67 °F (1991)
Min Temperature 10 °F 22 °F 1 °F (1950)
Degree Days  
Heating Degree Days 46    
Moisture  
Dew Point -3 °F    
Average Humidity 38    
Maximum Humidity 50    
Minimum Humidity 27    
Precipitation  
Precipitation 0.00 in - - ()
Sea Level Pressure  
Sea Level Pressure 30.17 in    
Wind  
Wind Speed 9 mph (NNW)    
Max Wind Speed 16 mph    
Max Gust Speed 22 mph    
Visibility 10 miles    
Events      
Averages and records for this station are not official NWS values.
T = Trace of Precipitation, MM = Missing Value Source: NWS Daily Summary

Daily Weather History Graph

Daily Weather History Graph

Search for Another Location

Airport:

Trip Planner

Search our weather history database for the weather conditions in past years. The results will help you decide how hot, cold, wet, or windy it might be!

Date:

Astronomy

Mar. 03, 2014 Rise Set
Actual Time 6:16 AM EST 5:36 PM EST
Civil Twilight 5:48 AM EST 6:04 PM EST
Nautical Twilight 5:16 AM EST 6:37 PM EST
Astronomical Twilight 4:43 AM EST 7:10 PM EST
Moon 7:19 AM EST (3/3) 8:41 PM EST (3/3)
Length of Visible Light 12h 16m
Length of Day
11h 19m
Waxing Crescent, 8% of the Moon is Illuminated
Mar 3
Waxing Crescent
Mar 8
First Quarter
Mar 16
Full
Mar 23
Last Quarter
Mar 30
New

Hourly Weather History & Observations

Time (EST) Temp. Windchill Dew Point Humidity Pressure Visibility Wind Dir Wind Speed Gust Speed Precip Events Conditions
12:54 AM 25.0 °F 15.5 °F 8.1 °F 49% 30.03 in 10.0 mi North 9.2 mph - N/A   Overcast
1:54 AM 24.1 °F 15.2 °F 6.1 °F 46% 30.04 in 10.0 mi NNW 8.1 mph - N/A   Overcast
2:54 AM 21.9 °F 11.0 °F 5.0 °F 48% 30.03 in 10.0 mi NNW 10.4 mph - N/A   Overcast
3:54 AM 19.9 °F 8.6 °F 3.9 °F 50% 30.06 in 10.0 mi North 10.4 mph - N/A   Overcast
4:54 AM 18.0 °F 4.2 °F -0.0 °F 45% 30.08 in 10.0 mi North 13.8 mph 21.9 mph N/A   Overcast
5:54 AM 17.1 °F 2.5 °F -2.0 °F 43% 30.10 in 10.0 mi NNW 15.0 mph - N/A   Overcast
6:54 AM 17.1 °F 2.0 °F -2.0 °F 43% 30.13 in 10.0 mi NNW 16.1 mph 21.9 mph N/A   Clear
7:54 AM 17.1 °F 5.0 °F -0.9 °F 45% 30.14 in 10.0 mi NNW 10.4 mph - N/A   Clear
8:54 AM 17.1 °F 4.3 °F -2.0 °F 43% 30.14 in 10.0 mi NNW 11.5 mph 19.6 mph N/A   Clear
9:54 AM 18.0 °F 6.9 °F -0.9 °F 44% 30.14 in 10.0 mi NW 9.2 mph 18.4 mph N/A   Clear
10:54 AM 19.0 °F 6.1 °F -2.0 °F 40% 30.15 in 10.0 mi NNW 12.7 mph 18.4 mph N/A   Clear
11:54 AM 19.9 °F 9.3 °F -2.0 °F 38% 30.15 in 10.0 mi NW 9.2 mph 18.4 mph N/A   Clear
12:54 PM 19.9 °F 7.9 °F -2.9 °F 37% 30.14 in 10.0 mi NNW 11.5 mph - N/A   Clear
1:54 PM 21.0 °F 9.3 °F -2.9 °F 35% 30.13 in 10.0 mi NW 11.5 mph 18.4 mph N/A   Clear
2:54 PM 21.0 °F 9.3 °F -2.9 °F 35% 30.15 in 10.0 mi WNW 11.5 mph - N/A   Clear
3:54 PM 21.9 °F 10.4 °F -4.0 °F 32% 30.17 in 10.0 mi WNW 11.5 mph 17.3 mph N/A   Clear
4:54 PM 21.9 °F 12.5 °F -5.1 °F 30% 30.19 in 10.0 mi NW 8.1 mph - N/A   Clear
5:54 PM 21.0 °F 13.4 °F -6.0 °F 30% 30.22 in 10.0 mi NW 5.8 mph - N/A   Clear
5:59 PM 21.0 °F 13.4 °F -6.0 °F 30% 30.21 in 10.0 mi NW 5.8 mph - N/A   Scattered Clouds
6:54 PM 19.9 °F 13.4 °F -9.0 °F 27% 30.25 in 10.0 mi NNW 4.6 mph - N/A   Scattered Clouds
7:54 PM 18.0 °F 11.1 °F -7.1 °F 33% 30.27 in 10.0 mi NW 4.6 mph - N/A   Clear
7:57 PM 18.0 °F 12.7 °F -7.1 °F 33% 30.26 in 10.0 mi NNW 3.5 mph - N/A   Clear
8:54 PM 17.1 °F 11.7 °F -8.0 °F 33% 30.29 in 10.0 mi NNW 3.5 mph - N/A   Clear
9:54 PM 15.1 °F 6.4 °F -9.0 °F 34% 30.30 in 10.0 mi NNW 5.8 mph - N/A   Clear
10:54 PM 14.0 °F - -9.9 °F 34% 30.31 in 10.0 mi Calm Calm - N/A   Clear
11:54 PM 10.9 °F - -9.9 °F 39% 30.31 in 10.0 mi Calm Calm - N/A   Clear